Weather History for Aurora, NE

Change the Weather History Date:

Wednesday, August 28, 2013

  Actual Average Record
Temperature  
Mean Temperature 78 °F -  
Max Temperature 92 °F 83 °F 101 °F (1970)
Min Temperature 64 °F 60 °F 47 °F (1988)
Cooling Degree Days 12    
Growing Degree Days 28 (Base 50)    
Moisture  
Dew Point 65 °F    
Average Humidity 68    
Maximum Humidity 91    
Minimum Humidity 40    
Precipitation  
Precipitation 0.00 in - - ()
Sea Level Pressure  
Sea Level Pressure 30.00 in    
Wind  
Wind Speed 8 mph (South)    
Max Wind Speed 12 mph    
Max Gust Speed -    
Visibility 10 miles    
Events      
Averages and records for this station are not official NWS values.
T = Trace of Precipitation, MM = Missing Value Source: NWS Daily Summary

Daily Weather History Graph

Daily Weather History Graph

Search for Another Location

Airport:

Trip Planner

Search our weather history database for the weather conditions in past years. The results will help you decide how hot, cold, wet, or windy it might be!

Date:

Astronomy

Aug. 28, 2013 Rise Set
Actual Time 6:55 AM CDT 8:10 PM CDT
Civil Twilight 6:26 AM CDT 8:38 PM CDT
Nautical Twilight 5:52 AM CDT 9:12 PM CDT
Astronomical Twilight 5:16 AM CDT 9:48 PM CDT
Moon 12:02 AM CDT (8/28) 2:50 PM CDT (8/28)
Length of Visible Light 14h 11m
Length of Day
13h 15m
Waning Gibbous, 47% of the Moon is Illuminated
Aug 28
Waning Gibbous
Sep 5
New
Sep 12
First Quarter
Sep 19
Full
Sep 26
Last Quarter

Hourly Weather History & Observations

Time (CDT) Temp. Heat Index Dew Point Humidity Pressure Visibility Wind Dir Wind Speed Gust Speed Precip Events Conditions
12:15 AM 73.0 °F - 61.7 °F 67% 29.96 in 10.0 mi South 8.1 mph - N/A   Clear
12:35 AM 73.2 °F - 61.5 °F 67% 29.96 in 10.0 mi SSW 9.2 mph - N/A   Clear
12:55 AM 72.5 °F - 61.2 °F 67% 29.96 in 10.0 mi SSW 9.2 mph - N/A   Clear
1:15 AM 71.2 °F - 61.7 °F 72% 29.97 in 10.0 mi SSW 8.1 mph - N/A   Clear
1:35 AM 71.4 °F - 61.2 °F 70% 29.97 in 10.0 mi SSW 8.1 mph - N/A   Clear
1:55 AM 70.0 °F - 61.7 °F 75% 29.97 in 10.0 mi SSW 6.9 mph - N/A   Clear
2:15 AM 70.0 °F - 61.7 °F 75% 29.97 in 10.0 mi SSW 8.1 mph - N/A   Clear
2:35 AM 69.8 °F - 61.7 °F 75% 29.97 in 10.0 mi SSW 8.1 mph - N/A   Clear
2:55 AM 69.8 °F - 61.7 °F 75% 29.97 in 10.0 mi SSW 9.2 mph - N/A   Clear
3:15 AM 69.3 °F - 61.7 °F 77% 29.97 in 10.0 mi SSW 8.1 mph - N/A   Clear
3:35 AM 68.0 °F - 61.7 °F 80% 29.97 in 10.0 mi SSW 5.8 mph - N/A   Clear
3:55 AM 67.1 °F - 61.9 °F 83% 29.98 in 10.0 mi SSW 6.9 mph - N/A   Clear
4:15 AM 66.2 °F - 62.1 °F 86% 29.98 in 10.0 mi SSW 5.8 mph - N/A   Clear
4:35 AM 65.7 °F - 61.9 °F 88% 29.98 in 10.0 mi SSW 6.9 mph - N/A   Clear
4:55 AM 65.3 °F - 61.9 °F 89% 29.98 in 10.0 mi SSW 5.8 mph - N/A   Clear
5:15 AM 64.8 °F - 61.9 °F 90% 29.99 in 10.0 mi SSW 5.8 mph - N/A   Clear
5:35 AM 64.6 °F - 61.9 °F 91% 29.99 in 10.0 mi SSW 5.8 mph - N/A   Clear
5:55 AM 64.4 °F - 61.7 °F 91% 29.99 in 10.0 mi SSW 5.8 mph - N/A   Clear
6:15 AM 65.5 °F - 62.1 °F 89% 29.98 in 10.0 mi South 5.8 mph - N/A   Clear
6:35 AM 66.2 °F - 62.1 °F 86% 29.99 in 10.0 mi South 5.8 mph - N/A   Clear
6:55 AM 65.3 °F - 61.9 °F 89% 29.99 in 10.0 mi South 4.6 mph - N/A   Clear
7:15 AM 65.7 °F - 62.1 °F 88% 30.00 in 10.0 mi SSW 6.9 mph - N/A   Clear
7:35 AM 67.1 °F - 62.8 °F 86% 30.00 in 10.0 mi South 8.1 mph - N/A   Clear
7:55 AM 68.0 °F - 63.0 °F 84% 30.00 in 10.0 mi SSW 8.1 mph - N/A   Clear
8:15 AM 69.3 °F - 63.9 °F 83% 30.00 in 10.0 mi SSW 5.8 mph - N/A   Clear
8:35 AM 70.9 °F - 64.2 °F 79% 30.01 in 10.0 mi South 6.9 mph - N/A   Clear
8:55 AM 72.3 °F - 64.6 °F 77% 30.01 in 10.0 mi SSW 5.8 mph - N/A   Clear
9:15 AM 73.9 °F - 65.5 °F 75% 30.01 in 10.0 mi SSW 8.1 mph - N/A   Clear
9:35 AM 74.8 °F - 65.8 °F 73% 30.02 in 10.0 mi SSW 6.9 mph - N/A   Clear
9:55 AM 77.0 °F - 66.4 °F 70% 30.02 in 10.0 mi SSW 8.1 mph - N/A   Clear
10:15 AM 78.3 °F - 67.1 °F 68% 30.03 in 10.0 mi SW 5.8 mph - N/A   Clear
10:35 AM 79.5 °F - 66.9 °F 65% 30.03 in 10.0 mi SW 8.1 mph - N/A   Clear
10:55 AM 80.6 °F 82.9 °F 66.7 °F 63% 30.03 in 10.0 mi SW 10.4 mph - N/A   Clear
11:15 AM 82.4 °F 85.4 °F 68.0 °F 62% 30.03 in 10.0 mi SSW 9.2 mph - N/A   Clear
11:35 AM 81.0 °F 83.6 °F 67.6 °F 64% 30.03 in 10.0 mi SSW 5.8 mph - N/A   Clear
11:55 AM 83.8 °F 87.0 °F 68.0 °F 59% 30.03 in 10.0 mi SSW 6.9 mph - N/A   Clear
12:15 PM 85.3 °F 88.5 °F 67.8 °F 56% 30.03 in 10.0 mi SSW 9.2 mph - N/A   Clear
12:35 PM 87.3 °F 91.2 °F 68.5 °F 54% 30.03 in 10.0 mi SSW 6.9 mph - N/A   Clear
12:55 PM 87.6 °F 91.5 °F 68.5 °F 53% 30.03 in 10.0 mi SSW 6.9 mph - N/A   Clear
1:15 PM 89.1 °F 93.7 °F 69.1 °F 52% 30.02 in 10.0 mi South 6.9 mph - N/A   Clear
1:35 PM 89.8 °F 93.3 °F 67.5 °F 48% 30.02 in 10.0 mi South 10.4 mph - N/A   Clear
1:55 PM 90.5 °F 93.8 °F 66.9 °F 46% 30.02 in 10.0 mi South 10.4 mph - N/A   Clear
2:15 PM 90.0 °F 93.6 °F 67.6 °F 48% 30.02 in 10.0 mi South 10.4 mph - N/A   Clear
2:35 PM 90.3 °F 93.4 °F 66.7 °F 46% 30.02 in 10.0 mi SW 6.9 mph - N/A   Clear
2:55 PM 90.5 °F 92.5 °F 65.3 °F 43% 30.01 in 10.0 mi South 8.1 mph - N/A   Clear
3:15 PM 91.2 °F 94.1 °F 66.4 °F 44% 30.01 in 10.0 mi SSW 10.4 mph - N/A   Clear
3:35 PM 90.3 °F 92.6 °F 65.5 °F 44% 30.01 in 10.0 mi SSW 11.5 mph - N/A   Clear
3:55 PM 91.8 °F 93.8 °F 64.9 °F 41% 30.01 in 10.0 mi South 10.4 mph - N/A   Clear
4:15 PM 90.3 °F 91.5 °F 63.9 °F 41% 30.00 in 10.0 mi SSW 9.2 mph - N/A   Clear
4:35 PM 91.4 °F 92.8 °F 63.9 °F 40% 30.00 in 10.0 mi South 8.1 mph - N/A   Clear
4:55 PM 90.7 °F 93.6 °F 66.6 °F 45% 30.00 in 10.0 mi South 11.5 mph - N/A   Clear
5:15 PM 90.3 °F 93.0 °F 66.4 °F 45% 30.00 in 10.0 mi South 8.1 mph - N/A   Clear
5:35 PM 88.7 °F 90.8 °F 65.5 °F 46% 30.00 in 10.0 mi South 8.1 mph - N/A   Clear
5:55 PM 88.7 °F 90.8 °F 65.3 °F 46% 29.99 in 10.0 mi South 9.2 mph - N/A   Clear
6:15 PM 86.7 °F 89.6 °F 67.1 °F 52% 30.00 in 10.0 mi SSE 4.6 mph - N/A   Clear
6:35 PM 85.8 °F 88.8 °F 67.6 °F 54% 30.00 in 10.0 mi SSE 4.6 mph - N/A   Clear
6:55 PM 85.1 °F 89.1 °F 69.1 °F 59% 30.00 in 10.0 mi SSE 5.8 mph - N/A   Clear
7:15 PM 83.3 °F 86.6 °F 68.7 °F 61% 30.00 in 10.0 mi SSE 5.8 mph - N/A   Clear
7:35 PM 81.5 °F 84.9 °F 69.8 °F 67% 30.00 in 10.0 mi SE 4.6 mph - N/A   Clear
7:55 PM 79.7 °F - 69.4 °F 71% 30.00 in 10.0 mi SSE 4.6 mph - N/A   Clear
8:15 PM 79.0 °F - 69.3 °F 72% 30.01 in 10.0 mi SSE 5.8 mph - N/A   Clear
8:35 PM 77.9 °F - 69.3 °F 75% 30.01 in 10.0 mi SSE 5.8 mph - N/A   Clear
8:55 PM 77.5 °F - 67.8 °F 72% 30.01 in 10.0 mi SSE 5.8 mph - N/A   Clear
9:15 PM 76.8 °F - 67.1 °F 72% 30.01 in 10.0 mi SSE 6.9 mph - N/A   Clear
9:35 PM 76.3 °F - 66.2 °F 71% 30.02 in 10.0 mi SSE 8.1 mph - N/A   Clear
9:55 PM 75.7 °F - 66.2 °F 72% 30.02 in 10.0 mi SSE 6.9 mph - N/A   Clear
10:15 PM 75.0 °F - 66.4 °F 74% 30.02 in 10.0 mi SSE 5.8 mph - N/A   Clear
10:35 PM 73.8 °F - 66.4 °F 78% 30.02 in 10.0 mi SE 5.8 mph - N/A   Clear
10:55 PM 73.4 °F - 66.6 °F 79% 30.02 in 10.0 mi South 4.6 mph - N/A   Clear
11:15 PM 73.9 °F - 66.2 °F 77% 30.02 in 10.0 mi South 6.9 mph - N/A   Clear
11:35 PM 73.6 °F - 66.4 °F 78% 30.02 in 10.0 mi SSE 5.8 mph - N/A   Clear
11:55 PM 72.0 °F - 66.6 °F 83% 30.02 in 10.0 mi South 5.8 mph - N/A   Clear